This is the latest recevied weather packets stored in our database for station/object WA2TQI. If no packets are shown the sender has not sent any weather packets the latest 1 day(s).
| Time | Temp. | Humidity | Pressure | Rain* | Wind** | Luminosity | Snow |
|---|---|---|---|---|---|---|---|
| 1778035658 | 20.56° C | 74% | 1012.2 hPa | 0 mm | 2.68 m/s, 266° | - | - |
| 1778035355 | 20.56° C | 73% | 1012.1 hPa | 0 mm | 0.45 m/s, 214° | - | - |
| 1778035051 | 20.56° C | 73% | 1012.1 hPa | 0 mm | 1.79 m/s, 226° | - | - |
| 1778034748 | 21.11° C | 72% | 1012.1 hPa | 0 mm | 1.79 m/s, 201° | - | - |
| 1778034445 | 21.11° C | 71% | 1011.9 hPa | 0 mm | 4.02 m/s, 156° | - | - |
| 1778034143 | 21.11° C | 71% | 1012.1 hPa | 0 mm | 4.02 m/s, 210° | - | - |
| 1778033840 | 21.11° C | 70% | 1011.9 hPa | 0 mm | 2.24 m/s, 152° | - | - |
| 1778033537 | 21.11° C | 70% | 1012.1 hPa | 0 mm | 3.58 m/s, 184° | - | - |
| 1778033234 | 21.11° C | 70% | 1012.1 hPa | 0 mm | 0.89 m/s, 146° | - | - |
| 1778032932 | 21.11° C | 69% | 1012 hPa | 0 mm | 2.24 m/s, 170° | - | - |
| 1778032629 | 21.67° C | 68% | 1012 hPa | 0 mm | 1.34 m/s, 204° | - | - |
| 1778032327 | 21.67° C | 68% | 1011.8 hPa | 0 mm | 1.79 m/s, 190° | - | - |
| 1778032024 | 21.67° C | 68% | 1011.8 hPa | 0 mm | 1.34 m/s, 205° | - | - |
| 1778031719 | 21.67° C | 68% | 1011.7 hPa | 0 mm | 1.34 m/s, 160° | - | - |
| 1778031418 | 21.67° C | 68% | 1011.8 hPa | 0 mm | 1.79 m/s, 118° | - | - |
| 1778031114 | 21.67° C | 68% | 1011.8 hPa | 0 mm | 0.89 m/s, 136° | - | - |
| 1778030810 | 21.67° C | 68% | 1011.7 hPa | 0 mm | 1.34 m/s, 204° | - | - |
| 1778030507 | 21.67° C | 68% | 1011.8 hPa | 0 mm | 2.24 m/s, 168° | - | - |
| 1778030205 | 21.67° C | 68% | 1011.7 hPa | 0 mm | 0.45 m/s, 151° | - | - |
| 1778029901 | 21.67° C | 68% | 1011.6 hPa | 0 mm | 1.34 m/s, 140° | - | - |
| 1778029600 | 21.67° C | 67% | 1011.5 hPa | 0 mm | 1.34 m/s, 176° | - | - |
| 1778029297 | 21.67° C | 67% | 1011.5 hPa | 0 mm | 2.24 m/s, 188° | - | - |
| 1778028993 | 21.67° C | 67% | 1011.6 hPa | 0 mm | 2.68 m/s, 183° | - | - |
| 1778028690 | 21.67° C | 67% | 1011.7 hPa | 0 mm | 0.89 m/s, 125° | - | - |
| 1778028386 | 21.67° C | 68% | 1011.5 hPa | 0 mm | 0.89 m/s, 178° | - | - |
* Rain latest hour (hover to see other rain measurements)
** Current wind speed in m/s (hover to see current wind gust speed)